Snowfall_Accumulation
0.0 0.0 0.0 0.0 0.0 0.0 0.0 0.0 0.1 0.3 0.0 0.0 0.0 0.0 0.0 0.0 0.0 0.0 0.0 0.0 0.0 0.0 0.0 0.0 0.0 0.0 0.0 0.0 0.0 0.0 0.0 0.0 0.0 0.0 0.0 0.0 0.0 0.0
0.0 0.0 0.0 0.0 0.0 0.0 0.0 0.0 0.0 0.2 0.3 0.0 0.0 0.0 0.0 0.0 0.0 0.0 0.0 0.0 0.0 0.0 0.1 0.1 0.1 0.1 0.1 0.0 0.0 0.0 0.0 0.0 0.0 0.0 0.0 0.0 0.0 0.0
0.0 0.0 0.0 0.1 0.0 0.0 0.0 0.0 0.1 0.1 0.3 0.1 0.1 0.1 0.1 0.0 0.0 0.0 0.0 0.0 0.0 0.1 0.1 0.1 0.1 0.1 0.1 0.1 0.1 0.1 0.0 0.0 0.0 0.0 0.0 0.0 0.0 0.0
0.0 0.0 0.1 0.1 0.0 0.1 0.0 0.2 0.2 0.3 0.8 0.9 0.3 0.2 0.1 0.1 0.0 0.0 0.0 0.0 0.0 0.0 0.1 0.2 0.2 0.2 0.2 0.2 0.2 0.1 0.1 0.0 0.0 0.0 0.0 0.0 0.0 0.0
0.1 0.1 0.1 0.1 0.1 0.2 0.2 0.2 0.3 0.4 0.6 1.0 0.5 0.1 0.1 0.0 0.1 0.1 0.0 0.0 0.0 0.0 0.0 0.1 0.1 0.2 0.3 0.3 0.3 0.2 0.2 0.2 0.1 0.1 0.1 0.0 0.0 0.0
0.3 0.3 0.5 0.4 0.5 0.4 0.4 0.5 0.7 0.8 0.9 1.3 1.5 1.0 0.8 0.3 0.3 0.3 0.1 0.1 0.1 0.1 0.1 0.0 0.1 0.2 0.2 0.2 0.2 0.3 0.3 0.3 0.4 0.3 0.3 0.2 0.1 0.1
0.3 0.3 0.3 0.2 0.2 0.2 0.4 0.8 1.0 1.4 2.2 2.6 2.4 1.7 1.0 0.8 0.7 0.6 0.8 0.4 0.3 0.1 0.1 0.1 0.1 0.1 0.1 0.1 0.1 0.1 0.2 0.4 0.5 0.5 0.5 0.3 0.2 0.1
0.2 0.5 0.4 0.4 0.3 0.3 0.4 0.7 1.5 2.5 3.4 3.7 3.4 2.3 1.1 0.8 0.8 1.0 1.5 2.2 1.8 0.4 0.4 0.4 0.2 0.2 0.2 0.1 0.1 0.2 0.4 0.7 0.8 0.9 0.7 0.6 0.4 0.2
0.7 0.6 0.5 0.4 0.5 0.4 0.4 0.9 1.4 1.8 2.3 2.6 2.5 1.6 1.2 1.0 2.0 3.2 3.3 3.6 2.7 1.0 1.0 1.1 0.3 0.4 0.2 0.2 0.2 0.3 0.4 0.6 0.7 0.8 0.8 0.6 0.5 0.4
0.6 0.5 0.6 0.5 0.4 0.6 1.2 1.7 1.1 0.6 0.6 0.6 0.9 1.0 1.1 1.2 2.7 4.8 4.8 3.7 1.8 0.7 0.8 2.0 0.7 0.5 0.2 0.2 0.2 0.3 0.4 0.5 0.8 0.9 0.9 0.7 0.6 0.5
0.4 0.4 0.6 0.5 0.6 1.6 2.6 2.3 1.1 0.3 0.1 0.5 0.8 0.8 0.8 0.8 1.2 3.6 4.9 5.4 3.9 1.1 0.7 1.8 1.3 1.2 1.0 0.7 0.2 0.4 0.8 0.7 1.0 0.9 0.9 1.0 0.7 0.7
0.6 0.5 0.5 0.6 1.1 2.2 2.5 2.1 1.4 0.6 0.8 0.6 0.3 0.2 0.2 0.3 0.6 2.7 6.5 10.4 7.9 4.4 1.2 2.5 2.9 3.5 4.5 1.6 1.7 1.2 1.0 1.1 1.0 0.9 1.0 1.0 1.0 1.2
1.2 0.9 0.3 0.9 1.8 2.0 1.7 1.1 1.3 2.0 1.7 0.9 0.6 0.4 0.4 0.4 0.5 1.1 3.6 10.3 13.3 8.4 2.3 6.2 7.6 5.1 8.5 6.3 2.8 2.0 2.0 2.1 1.8 1.2 1.0 1.0 1.1 1.4
1.4 0.9 0.8 1.5 1.6 1.2 0.9 0.9 1.3 1.2 0.9 1.2 1.1 1.2 1.2 1.3 1.5 1.7 2.6 4.6 7.7 8.8 5.5 8.4 13.2 9.9 12.2 9.6 4.8 3.3 2.0 2.9 3.7 2.5 1.6 0.9 0.8 1.0
1.1 1.3 1.3 1.2 1.0 1.0 0.8 1.0 1.3 1.5 2.1 2.9 2.6 2.0 2.0 2.4 2.6 3.4 3.5 3.8 4.4 4.9 6.6 6.9 10.1 10.9 13.0 12.6 8.9 7.1 7.5 4.6 4.5 4.4 2.9 1.8 1.1 1.1
1.5 1.3 1.1 0.8 0.9 1.1 1.0 1.3 1.4 2.2 3.8 5.2 4.7 3.5 3.3 4.1 5.4 6.6 7.9 8.4 10.2 8.7 7.7 7.4 7.6 10.7 12.5 9.9 10.8 10.2 10.1 10.4 7.3 5.6 4.3 2.9 1.5 1.1
1.8 1.1 1.1 1.2 1.3 1.5 1.4 1.5 1.7 2.3 3.9 5.0 5.7 6.4 6.4 7.5 9.2 10.9 12.0 11.9 11.8 10.2 8.2 6.5 5.9 6.3 8.1 9.0 10.0 9.7 10.3 10.3 7.9 5.3 5.1 5.2 2.4 1.7
1.4 1.4 1.5 1.7 2.0 2.1 2.2 2.1 2.3 3.1 4.9 6.6 7.6 8.7 10.8 11.7 12.0 11.8 12.2 12.4 11.6 9.1 7.6 6.1 6.0 6.3 5.8 5.2 7.3 10.0 10.6 10.7 7.2 5.9 6.0 7.3 5.5 3.0
1.7 1.9 1.9 2.2 2.5 2.9 3.3 4.0 3.7 3.9 6.0 8.4 10.5 12.4 13.6 13.9 13.5 12.9 11.6 10.5 9.0 7.0 6.2 5.3 6.0 10.1 10.9 7.2 5.3 7.3 12.3 12.5 8.5 6.7 6.2 7.0 7.1 4.6
2.4 3.4 3.5 3.0 3.3 3.9 4.7 5.6 6.4 7.0 8.0 10.6 12.1 13.5 14.9 15.5 14.1 11.7 9.8 8.9 7.9 6.2 4.8 3.9 4.9 9.6 15.3 14.0 10.8 8.8 8.6 12.8 13.8 12.0 7.4 5.0 4.4 3.0
3.6 4.1 4.4 4.1 4.0 5.2 6.1 7.5 9.0 10.8 11.4 13.1 13.8 14.7 15.1 15.1 12.5 9.1 7.5 6.1 6.3 6.4 6.1 4.6 4.0 5.3 9.3 12.2 10.9 7.9 8.9 7.5 9.7 15.1 14.4 12.4 9.5 7.0
3.1 3.8 4.2 4.4 4.9 6.4 7.4 9.0 10.6 11.5 12.7 13.7 14.6 14.7 13.7 12.3 10.4 7.3 6.3 6.4 6.1 5.8 5.5 4.5 3.6 4.3 7.2 10.9 10.0 7.7 8.0 8.1 6.0 4.8 7.1 11.3 18.6 19.0
3.4 4.2 5.0 5.3 6.3 7.6 9.3 10.4 11.2 12.1 13.5 14.7 14.7 13.1 11.3 9.3 7.1 6.5 6.4 6.5 6.5 5.9 5.5 5.2 4.7 4.7 5.6 7.3 8.6 7.8 7.1 6.7 6.3 6.7 8.7 5.5 5.8 7.0